[[{"header":{"parameterUnit":"m.s-1","parameterCategory":1,"la1":30.2991,"la2":30.254,"lo1":-89.0895,"lo2":-89.0444,"dy":0.0017,"dx":0.0017,"nx":28,"ny":28,"refTime":"2025-08-22T09:00:00:Z","depth":0,"parameterNumber":2,"parameterNumberName":"U-component_of_WINDS"},"data":[0,0,0,0,0,0,0,0,0,0,0,0,0,0,0,0,0,0,0,0,0,0,0,0,0,0,0,0,0,0,0,0,0,0,0,0,0,0,0,0,0,0,0,0,0,0,0,0,0,0,0,0,0,0,0,0,0,0,0.885,0.885,0,0.8906,0.8907,0.8908,0.8911,0.891,0.8909,0.8909,0.8967,0.8969,0.8971,0,0,0,0,0,0,0,0,0,0,0,0,0,0.8743,0.8745,0.8849,0.885,0.8851,0.8906,0.8907,0.8908,0.8911,0.891,0.8909,0.8908,0.8966,0.8969,0.8971,0,0,0,0,0,0,0,0,0,0,0,0,0,0.8793,0.8746,0.8849,0.8859,0.886,0.8906,0.8907,0.8908,0.8911,0.891,0.8909,0.8908,0.8965,0.8968,0.8972,0.9011,0,0,0.8981,0.8983,0,0,0,0,0,0,0,0,0.8791,0.8797,0.8857,0.8858,0.886,0.89,0.8891,0.8943,0.8911,0.8892,0.8909,0.8908,0.8945,0.895,0.8963,0.9014,0.9016,0.8982,0.8984,0.8985,0.8986,0,0,0,0,0,0,0,0.8787,0.8795,0.8872,0.8858,0.886,0.886,0.8866,0.8901,0.8923,0.8893,0.8894,0.89,0.8946,0.896,0.8964,0.9017,0.8982,0.8984,0.8986,0.8988,0.9102,0.9104,0,0,0,0,0,0,0.8782,0.8792,0.887,0.8874,0.8822,0.8863,0.887,0.8888,0.8923,0.8927,0.8901,0.89,0.8955,0.8961,0.8966,0.9014,0.8985,0.8988,0.899,0.9101,0.9103,0.9104,0,0,0,0,0,0,0.8779,0.8789,0.8868,0.8833,0.8843,0.8866,0.8887,0.889,0.8904,0.8929,0.8933,0.8911,0.8954,0.8962,0.9,0.9017,0.8989,0.8992,0.91,0.9102,0.9103,0.9111,0,0,0,0,0,0,0.8776,0.8788,0.8803,0.8833,0.8845,0.89,0.8888,0.8892,0.8909,0.8909,0.8939,0.8943,0.8954,0.8995,0.9003,0.902,0.8995,0.9099,0.9101,0.9103,0.9109,0.9113,0.9116,0,0,0,0,0,0.8773,0.8803,0.8804,0.8814,0.8865,0.8901,0.8908,0.892,0.8911,0.8926,0.8942,0.8942,0.9013,0.8999,0.9008,0.9027,0.9098,0.91,0.9103,0.9108,0.9112,0.9116,0,0,0,0,0,0,0.8775,0.8808,0.8809,0.885,0.8873,0.8902,0.8922,0.8924,0.895,0.8948,0.8961,0.8968,0.9006,0.902,0.9003,0.9066,0.9055,0.9059,0.9056,0.906,0.9063,0.9058,0.8998,0,0,0,0,0,0.878,0.8808,0.8835,0.8869,0.888,0.8899,0.8915,0.8922,0.8946,0.8956,0.8975,0.8998,0.9026,0.9044,0.907,0.9112,0.9118,0.9129,0.9132,0.9135,0.9138,0.916,0.9165,0.9112,0.9112,0.9112,0,0,0.8792,0.8813,0.8829,0.887,0.8888,0.8915,0.8907,0.8937,0.8957,0.8961,0.8997,0.9012,0.9039,0.9078,0.9097,0.9091,0.9154,0.9138,0.9139,0.9142,0.9163,0.9168,0.9173,0.9114,0.9113,0.9113,0,0,0.8826,0.8845,0.8875,0.8894,0.8922,0.8934,0.8942,0.897,0.898,0.9017,0.902,0.9044,0.9092,0.911,0.9126,0.9167,0.9168,0.9175,0.9192,0.9213,0.9217,0.9221,0.9235,0.924,0.9179,0.9179,0.9179,0,0.8837,0.8879,0.8891,0.892,0.8937,0.8942,0.8972,0.8989,0.9025,0.9036,0.903,0.9089,0.9107,0.9151,0.9161,0.9174,0.9182,0.9172,0.9216,0.922,0.9223,0.9237,0.9242,0.918,0.918,0.918,0.918,0,0.889,0.8919,0.894,0.8973,0.8993,0.9023,0.9039,0.9057,0.9062,0.9075,0.9113,0.9135,0.9166,0.9177,0.9182,0.9221,0.9217,0.9213,0.9201,0.9229,0.9242,0.9247,0.9181,0.918,0.918,0.918,0,0,0.8928,0.8967,0.8975,0.899,0.9021,0.9043,0.9073,0.9103,0.9118,0.9142,0.9167,0.9207,0.9203,0.9221,0.9229,0.9247,0.9277,0.9241,0.9242,0.9247,0.9321,0.9323,0.9329,0.9278,0.9279,0.928,0.9318,0,0.8965,0.9018,0.903,0.9075,0.9101,0.9106,0.9131,0.9153,0.9166,0.919,0.9204,0.9231,0.9225,0.9235,0.9254,0.927,0.9292,0.9267,0.9301,0.9302,0.9294,0.9336,0.9338,0.9373,0.9323,0.9324,0.9325,0,0.9016,0.9041,0.9089,0.9116,0.9128,0.9151,0.9179,0.9202,0.9226,0.9234,0.9254,0.9259,0.9289,0.9276,0.9318,0.9301,0.9315,0.9325,0.9327,0.933,0.9315,0.9339,0.9385,0.939,0.9333,0.9332,0.9332,0,0.9038,0.9084,0.9118,0.9131,0.9164,0.918,0.9194,0.9217,0.9234,0.9259,0.927,0.9298,0.9313,0.9334,0.9347,0.9336,0.9387,0.9375,0.9394,0.9394,0.9405,0.9404,0.9452,0.9415,0.9415,0.9414,0.9414,0,0.9079,0.9108,0.9129,0.915,0.9182,0.9195,0.9227,0.9241,0.9261,0.9285,0.929,0.9312,0.9328,0.9352,0.9362,0.9395,0.9402,0.9409,0.9411,0.9408,0.9407,0.9417,0.9415,0.9416,0.9416,0.9415,0.9415,0,0.9109,0.9124,0.9162,0.9189,0.9197,0.9219,0.9243,0.9263,0.9276,0.9305,0.9313,0.9333,0.9361,0.9376,0.9412,0.9418,0.9455,0.9456,0.9447,0.9448,0.9465,0.9463,0.9522,0.953,0.9487,0.9488,0.9488,0,0.9133,0.9156,0.9186,0.9202,0.9216,0.9242,0.926,0.9273,0.9291,0.932,0.9336,0.9365,0.9389,0.9434,0.9451,0.9479,0.948,0.9499,0.9484,0.948,0.948,0.9478,0.948,0.9501,0.9502,0.9502,0.9502,0,0.9175,0.9182,0.9207,0.9234,0.9255,0.9277,0.9299,0.9312,0.9328,0.9348,0.9377,0.9396,0.9432,0.946,0.9488,0.9502,0.9505,0.9506,0.9512,0.9509,0.9503,0.9506,0.9453,0.9505,0.9505,0.9505,0.9504,0.9504,0.9203,0.9223,0.9247,0.9274,0.9292,0.9312,0.9333,0.9348,0.9372,0.9403,0.9409,0.9439,0.9462,0.9501,0.9516,0.954,0.9536,0.9544,0.9546,0.9548,0.9548,0.9499,0.9545,0.9545,0.9545,0.9545,0.9545,0,0.9245,0.9261,0.9286,0.9316,0.9337,0.9338,0.9362,0.938,0.9407,0.9428,0.9451,0.9484,0.9511,0.9531,0.9558,0.9573,0.9575,0.958,0.9579,0.9582,0.9551,0.9543,0.9578,0.9578,0.9578,0.9578,0.9578,0.9578,0.9269,0.9303,0.9312,0.9354,0.9369,0.9399,0.9413,0.9431,0.9448,0.9485,0.9507,0.952,0.954,0.9569,0.9594,0.9599,0.9608,0.9613,0.9618,0.9588,0.9585,0.9581,0.9574,0.9615,0.9615,0.9648,0.9648,0.9648]},{"header":{"parameterUnit":"m.s-1","parameterCategory":1,"la1":30.2991,"la2":30.254,"lo1":-89.0895,"lo2":-89.0444,"dy":0.0017,"dx":0.0017,"nx":28,"ny":28,"refTime":"2025-08-22T09:00:00:Z","depth":0,"parameterNumber":3,"parameterNumberName":"V-component_of_WINDS"},"data":[0,0,0,0,0,0,0,0,0,0,0,0,0,0,0,0,0,0,0,0,0,0,0,0,0,0,0,0,0,0,0,0,0,0,0,0,0,0,0,0,0,0,0,0,0,0,0,0,0,0,0,0,0,0,0,0,0,0,2.5853,2.5852,0,2.5805,2.5804,2.5804,2.5713,2.5712,2.571,2.5708,2.5661,2.5661,2.5661,0,0,0,0,0,0,0,0,0,0,0,0,0,2.5865,2.5865,2.5853,2.5852,2.5851,2.5805,2.5804,2.5804,2.5714,2.5712,2.5709,2.5707,2.566,2.5661,2.5661,0,0,0,0,0,0,0,0,0,0,0,0,0,2.5843,2.5865,2.5853,2.5801,2.5796,2.5805,2.5804,2.5804,2.5714,2.5711,2.5709,2.5706,2.566,2.5661,2.5661,2.5718,0,0,2.5663,2.5663,0,0,0,0,0,0,0,0,2.5844,2.5842,2.5809,2.5804,2.5799,2.5762,2.5791,2.5775,2.5715,2.5745,2.5708,2.5705,2.5697,2.5694,2.5691,2.5716,2.5713,2.5663,2.5663,2.5664,2.5664,0,0,0,0,0,0,0,2.5846,2.5844,2.5834,2.5809,2.5802,2.578,2.5774,2.5788,2.5736,2.5742,2.5736,2.5731,2.5693,2.5691,2.5689,2.5713,2.5663,2.5664,2.5664,2.5664,2.5777,2.578,0,0,0,0,0,0,2.5855,2.5846,2.5835,2.5832,2.5815,2.5782,2.5775,2.5777,2.5736,2.5727,2.5733,2.5727,2.5691,2.5689,2.5687,2.5748,2.5664,2.5664,2.5665,2.5775,2.5778,2.5781,0,0,0,0,0,0,2.5855,2.5855,2.5837,2.5837,2.5833,2.5784,2.5787,2.5777,2.5774,2.5729,2.572,2.574,2.5689,2.5686,2.571,2.5745,2.5664,2.5665,2.5772,2.5776,2.5779,2.5871,0,0,0,0,0,0,2.5856,2.5856,2.5877,2.5838,2.5834,2.5861,2.5789,2.5778,2.5775,2.5767,2.5733,2.5725,2.5687,2.571,2.571,2.5744,2.5665,2.5768,2.5773,2.5778,2.5865,2.5878,2.5889,0,0,0,0,0,2.5857,2.5906,2.5878,2.5878,2.5859,2.5864,2.5861,2.5815,2.5779,2.5799,2.577,2.5726,2.5741,2.5713,2.5713,2.5747,2.5766,2.5772,2.5778,2.5859,2.5875,2.5889,0,0,0,0,0,0,2.5951,2.59,2.5869,2.5907,2.589,2.5848,2.5873,2.5834,2.5828,2.582,2.5764,2.5757,2.5788,2.577,2.5739,2.5798,2.5746,2.5753,2.5808,2.5823,2.5835,2.5838,2.5666,0,0,0,0,0,2.5976,2.5984,2.5939,2.5976,2.5969,2.5923,2.5923,2.5889,2.587,2.5863,2.5835,2.5818,2.5818,2.582,2.5818,2.5862,2.5852,2.5886,2.5898,2.5908,2.5914,2.5933,2.5946,2.5801,2.5801,2.5801,0,0,2.6028,2.6001,2.6009,2.5994,2.5977,2.5986,2.5918,2.593,2.5936,2.5865,2.5884,2.5863,2.584,2.5874,2.5887,2.586,2.5952,2.5916,2.5924,2.5924,2.594,2.5954,2.5966,2.5805,2.5804,2.5803,0,0,2.6126,2.6107,2.6135,2.6119,2.6093,2.6062,2.6069,2.6032,2.6015,2.6034,2.598,2.5985,2.5988,2.5973,2.5966,2.6056,2.6015,2.6057,2.612,2.6139,2.615,2.616,2.619,2.6202,2.6063,2.6064,2.6064,0,2.6193,2.6204,2.6154,2.6169,2.6163,2.6098,2.6125,2.6112,2.6088,2.6085,2.6055,2.6055,2.6035,2.6063,2.6084,2.6082,2.6086,2.606,2.6153,2.6162,2.6171,2.6198,2.621,2.6069,2.6068,2.6068,2.6067,0,2.6287,2.6295,2.6321,2.6297,2.6294,2.6316,2.6268,2.6271,2.6237,2.6208,2.6227,2.6201,2.6191,2.6195,2.6163,2.6217,2.6201,2.6163,2.611,2.6191,2.6215,2.6226,2.6076,2.6074,2.6073,2.6071,0,0,2.6444,2.6391,2.6401,2.6388,2.6354,2.6359,2.6377,2.6366,2.6369,2.6354,2.6366,2.6369,2.6332,2.6324,2.629,2.6307,2.6376,2.6266,2.6264,2.6285,2.6431,2.6459,2.6472,2.6349,2.6351,2.6352,2.6432,0,2.6533,2.6559,2.6514,2.655,2.6556,2.6493,2.6508,2.6488,2.6462,2.6462,2.6432,2.6434,2.6387,2.6381,2.6396,2.6365,2.6404,2.6359,2.6358,2.6359,2.6364,2.6485,2.6515,2.6592,2.6442,2.6444,2.6445,0,2.6641,2.663,2.6667,2.6628,2.6628,2.6643,2.6628,2.6629,2.6605,2.6584,2.6574,2.6532,2.6545,2.6495,2.6511,2.6481,2.6478,2.6463,2.6464,2.6461,2.6406,2.6484,2.6616,2.6627,2.646,2.6459,2.6458,0,2.6749,2.6743,2.6763,2.6755,2.6711,2.6721,2.6704,2.6677,2.6673,2.666,2.6656,2.6646,2.664,2.6632,2.6588,2.6556,2.6609,2.6555,2.659,2.6592,2.6604,2.6603,2.6735,2.6605,2.6605,2.6605,2.6605,0,2.6853,2.6877,2.681,2.6823,2.6848,2.6795,2.6821,2.6796,2.6773,2.6778,2.6724,2.6731,2.6673,2.6673,2.6639,2.6656,2.6655,2.6637,2.6627,2.6641,2.6643,2.6637,2.663,2.6608,2.6607,2.6606,2.6606,0,2.6977,2.6934,2.6951,2.6907,2.6896,2.6916,2.6878,2.6887,2.6856,2.6864,2.6863,2.6815,2.6812,2.6767,2.6755,2.6732,2.6762,2.6743,2.677,2.6763,2.68,2.6797,2.6932,2.6946,2.6809,2.681,2.6811,0,2.7045,2.7062,2.7019,2.7018,2.7003,2.7003,2.6998,2.6946,2.6942,2.6915,2.6927,2.6919,2.691,2.6908,2.6871,2.6861,2.684,2.6888,2.6838,2.6851,2.6838,2.6837,2.6837,2.6899,2.69,2.6902,2.6903,0,2.717,2.7147,2.7141,2.7127,2.7122,2.7109,2.7092,2.7095,2.7038,2.7036,2.7032,2.7025,2.7011,2.7003,2.6986,2.6967,2.6925,2.6919,2.6926,2.6939,2.6953,2.6944,2.6797,2.6916,2.6915,2.6914,2.6913,2.6912,2.7267,2.7278,2.7248,2.7243,2.7224,2.721,2.7215,2.7184,2.7179,2.7163,2.7133,2.7132,2.7105,2.7077,2.7061,2.706,2.7035,2.7046,2.7049,2.7052,2.7058,2.6955,2.7057,2.7056,2.7056,2.7055,2.7055,0,2.7387,2.7364,2.736,2.7337,2.7332,2.7293,2.7272,2.727,2.727,2.7248,2.724,2.7233,2.7225,2.7187,2.7174,2.718,2.716,2.7178,2.7176,2.7172,2.7082,2.7076,2.7194,2.7194,2.7194,2.7194,2.7194,2.7194,2.7449,2.7464,2.7437,2.7442,2.7419,2.7418,2.7409,2.7394,2.7376,2.7371,2.7363,2.7338,2.7309,2.7293,2.7283,2.7272,2.7269,2.7293,2.7276,2.7192,2.7179,2.7166,2.716,2.7294,2.7294,2.7365,2.7366,2.7367]}]]